FENGYUN 1C DEB *, 47012

Orbit data source: Space-Track

FENGYUN 1C DEB *, 47012 is space debris in SSO originally from a launch on Mon, 10 May 1999 UTC launched from the Taiyaun Space Center, China (TSC). Fengyun 1C debris stems from the Chinese weather satellite Fengyun-1C, which was intentionally destroyed by a Chinese anti-satellite missile in 2007. This event dramatically increased the amount of space debris, with thousands of trackable fragments posing hazards to satellites and human spaceflight. The Fengyun 1C debris cloud has become a focal point in discussions about space sustainability and the need for international regulations to prevent the creation of new debris.

Loading next visibility...
Identifier
47012, 1999-025FAN
Orbit
SSO
Country
Flag of CNCN / PRC
Related business
Manufacturer
Unknown
Mission
Spacecraft
Bus & Motor
Unknown
Mass
Unknown
Launch date (UTC)
1999-05-10 (27 years ago)
Launch vehicle
Unknown
Launch site
Taiyaun Space Center, China (TSC)
Object type
Payload
Rocket body
Debris
Shape & HBR
Unknown shape, 0.1 m
Radar Cross Section
Small (<0.1 m²)

Expand to show TLE details & history
Last TLE update: 2 weeks ago

TLE from 2 weeks ago
0 FENGYUN 1C DEB *
1 47012U 99025FAN 26161.38840068  .00000346  00000-0  34890-3 0  9992
2 47012  98.7333  30.8587 0161692 302.0235  56.5296 13.78088710570479
Epoch: 2026-06-10T09:19Z
TLE epoch observation values (Epoch: 2026-06-10T09:19:17.818Z)
Latitude
-0.00007°
Longitude
-7.7128°
Altitude
909.341 km
Speed
7.43 km/s
True Right ascension
02h 03m 26s
True Declination
0° 00' 00"
Sunlit
Object was in daylight at epoch
Visualization orbit readout
Latitude
Unknown
Longitude
Unknown
Altitude
Unknown
Speed
Unknown
Apparent Right ascension
Unknown
Apparent Declination
Unknown
Sunlit
N/A
Visualization observer readout
Local Sidereal Time
21:40:45
Azimuth
Unknown
Elevation
Unknown
Doppler factor
Unknown
Orbital elements
Apogee altitude
1,086.668 km
Perigee altitude
849.109 km
Semi-major axis
7,346.026 km
Eccentricity
0.01617
Inclination
98.7333°
RAAN
30.8587°
Arg. of periapsis
302.0235°
True anomaly
58.09242°
Mean anomaly
56.5296°
Eccentric anomaly
57.30928°
Mean motion
3.44718 °/min
Orbital period
104.43 mins
BSTAR
0.0003489
Loading maneuver chart data...
Computing Atmospheric mass density...
Loading historical data...
Loading historical data...
Loading historical data...
Loading historical data...
Loading historical data...
Loading historical data...
Loading historical data...

Documentation

Showing up to 5 results
|